Regional Weather Roundup
Issued by NWS

Home | Current Version | Previous Version | Graphics & Text | Print | Product List | Glossary On
Versions: 1 2 3 4 5 6 7 8 9 10 11 12 13 14 15 16 17 18 19 20 21 22 23 24 25 26 27 28 29 30 31 32 33 34 35 36 37 38 39 40 41 42 43 44 45 46 47 48 49 50
000
ASUS43 KIND 201609
RWRIN

WEATHER ROUNDUP FOR INDIANA
NATIONAL WEATHER SERVICE INDIANAPOLIS IN
1200 PM EDT SAT SEP 20 2014

NOTE: "FAIR" INDICATES FEW OR NO CLOUDS BELOW 12,000 FEET WITH NO
SIGNIFICANT WEATHER AND/OR OBSTRUCTIONS TO VISIBILITY.

* - STATION DOES NOT REPORT WEATHER SUCH AS PRECIPITATION OR FOG.

+ - STATION NOT QUALITY CONTROLLED BY THE NATIONAL WEATHER SERVICE.
    USE DATA WITH CAUTION...ESPECIALLY DEWPOINT AND RELATIVE
    HUMIDITY OBSERVATIONS.

INZ001>003-010>013-019-020-201700-
NORTHWEST INDIANA

CITY           SKY/WX    TMP DP  RH WIND       PRES   REMARKS
GARY /AIRPORT/ PTSUNNY   73  63  68 S17       29.89F
KNOX *+        PTSUNNY   74  60  63 SW15      29.92F
LA PORTE +     PTSUNNY   73  61  66 SW14G24   29.91F
MICHIGAN CITY+ PTSUNNY   73  59  60 SW14G24   29.89F
MONTICELLO +   CLOUDY    73  63  70 S13G22    29.97F
RENSSELAER +   CLOUDY    73  64  73 S14G20    29.95F
VALPARAISO     PTSUNNY   74  61  63 SW21G28   29.91F

$$

LMZ046-743>745-201700-
SOUTHERN LAKE MICHIGAN

STATION/POSITION TIME  TEMP WIND        PRES
                       AIR  DIR/SP/G
                 (UTC) (F)  (DEG/KT/KT) (MB)
MICHIGAN CITY    1600   71  180/ 18/ 25   N/A

$$

INZ004-005-014>016-021>024-201700-
NORTH CENTRAL INDIANA

CITY           SKY/WX    TMP DP  RH WIND       PRES   REMARKS
GOSHEN         CLOUDY    73  60  63 SW20G31   29.94F
LOGANSPORT +   CLOUDY    72  59  64 SW14G22   30.01S
PERU/GRISSOM   CLOUDY    73  67  81 SW16      30.00S
ROCHESTER +    CLOUDY    73  63  68 SW15G22   29.96F
SOUTH BEND     PTSUNNY   74  61  63 SW18G25   29.91F
WARSAW +       CLOUDY    70  61  73 S7        29.96F

$$

INZ006>009-017-018-025>027-201700-
NORTHEAST INDIANA

CITY           SKY/WX    TMP DP  RH WIND       PRES   REMARKS
ANGOLA *+      SUNNY     73  66  78 SW15      29.96S
AUBURN +       PTSUNNY   72  57  60 SW12      29.99F
FORT WAYNE     PTSUNNY   74  59  59 SW16G29   30.00F
HUNTINGTON +   CLOUDY    72  60  66 W12G17    30.00F

$$

INZ028-029-035-036-043>045-051>053-201700-
WEST CENTRAL INDIANA

CITY           SKY/WX    TMP DP  RH WIND       PRES   REMARKS
GREENCASTLE +  PTSUNNY   70  61  73 S5        30.06F
LAFAYETTE      CLOUDY    71  60  68 SW8       30.00F
TERRE HAUTE    PTSUNNY   75  63  66 SW12      30.05F

$$

INZ030>032-037>040-046>048-054>057-064-065-201700-
CENTRAL INDIANA

CITY           SKY/WX    TMP DP  RH WIND       PRES   REMARKS
ANDERSON       SUNNY     73  59  60 SW10G16   30.06
CP ATTERBURY + MOSUNNY   75  63  64 SW8       30.07F
COLUMBUS       MOSUNNY   75  64  69 SW12      30.07S
FRANKFORT +    CLOUDY    74  61  64 SW12G21   30.04S
INDIANAPOLIS   CLOUDY    74  61  63 SW12      30.05F
-EAGLE CREEK   PTSUNNY   74  60  61 SW8       30.04F
KOKOMO *+      CLOUDY    73  63  68 SW18      30.01F
MARION +       PTSUNNY   75  58  55 SW12G18   30.03F
MT COMFORT *+  PTSUNNY   75  54  46 SW12      30.06F
SHELBYVILLE    PTSUNNY   74  61  63 S8        30.07S
ZIONSVILLE +   PTSUNNY   75  61  60 SW12G17   30.04F

$$

INZ033-034-041-042-049-050-058-059-201700-
EAST CENTRAL INDIANA

CITY           SKY/WX    TMP DP  RH WIND       PRES   REMARKS
MUNCIE         PTSUNNY   74  33  22 SW12G21   30.03F

$$

INZ060-061-067>069-081>083-085>088-201700-
SOUTHWEST INDIANA

CITY           SKY/WX    TMP DP  RH WIND       PRES   REMARKS
EVANSVILLE     PTSUNNY   77  65  66 SW14      30.08S
WASHINGTON +   PTSUNNY   77  66  69 SW12      30.06F

$$

INZ062-063-066-070>080-084-089>092-201700-
SOUTH CENTRAL AND SOUTHEAST INDIANA

CITY           SKY/WX    TMP DP  RH WIND       PRES   REMARKS
BEDFORD +      PTSUNNY   75  63  64 SW12      30.08
BLOOMINGTON    MOSUNNY   74  63  68 SW8       30.07S

$$




USA.gov is the U.S. government's official web portal to all federal, state and local government web resources and services.